Weather History for KULM - November, 2012

Change the Weather History Date:

Wednesday, November 14, 2012

  Actual Average Record
Temperature  
Mean Temperature 42 °F -  
Max Temperature 53 °F 40 °F 71 °F (1990)
Min Temperature 30 °F 25 °F -7 °F (1959)
Degree Days  
Heating Degree Days 24    
Moisture  
Dew Point 31 °F    
Average Humidity 70    
Maximum Humidity 93    
Minimum Humidity 41    
Precipitation  
Precipitation 0.00 in - - ()
Sea Level Pressure  
Sea Level Pressure 30.20 in    
Wind  
Wind Speed 5 mph (South)    
Max Wind Speed 10 mph    
Max Gust Speed -    
Visibility 10 miles    
Events      
Averages and records for this station are not official NWS values.
T = Trace of Precipitation, MM = Missing Value Source: NWS Daily Summary

Daily Weather History Graph

Daily Weather History Graph

Search for Another Location

Airport or City:

Trip Planner

Search our weather history database for the weather conditions in past years. The results will help you decide how hot, cold, wet, or windy it might be!

Date:

Astronomy

Nov. 14, 2012 Rise Set
Actual Time 7:13 AM CST 4:51 PM CST
Civil Twilight 6:41 AM CST 5:22 PM CST
Nautical Twilight 6:06 AM CST 5:57 PM CST
Astronomical Twilight 5:32 AM CST 6:32 PM CST
Moon 8:05 AM CST (11/14) 5:38 PM CST (11/14)
Length of Visible Light 10h 40m
Length of Day
9h 38m
New Moon, 1% of the Moon is Illuminated
Nov 14
New Moon
Nov 20
First Quarter
Nov 28
Full
Dec 6
Last Quarter
Dec 13
New

Hourly Weather History & Observations

Time (CST) Temp. Windchill Dew Point Humidity Pressure Visibility Wind Dir Wind Speed Gust Speed Precip Events Conditions
12:13 AM 37.4 °F 31.4 °F 28.4 °F 70% 30.24 in 10.0 mi SSE 8.1 mph - N/A   Overcast
12:53 AM 35.6 °F 29.9 °F 30.2 °F 81% 30.23 in 10.0 mi SSE 6.9 mph - N/A   Overcast
1:13 AM 35.6 °F 29.9 °F 28.4 °F 75% 30.23 in 10.0 mi SSE 6.9 mph - N/A   Overcast
1:32 AM 35.6 °F 30.7 °F 30.2 °F 81% 30.23 in 10.0 mi South 5.8 mph - N/A   Mostly Cloudy
1:53 AM 35.6 °F 31.7 °F 28.4 °F 75% 30.23 in 10.0 mi SSE 4.6 mph - N/A   Scattered Clouds
2:13 AM 35.6 °F 30.7 °F 28.4 °F 75% 30.23 in 10.0 mi South 5.8 mph - N/A   Scattered Clouds
2:32 AM 33.8 °F 28.6 °F 28.4 °F 81% 30.23 in 10.0 mi South 5.8 mph - N/A   Clear
2:53 AM 33.8 °F - 30.2 °F 87% 30.23 in 10.0 mi Calm Calm - N/A   Mostly Cloudy
3:13 AM 33.8 °F - 30.2 °F 87% 30.23 in 10.0 mi Calm Calm - N/A   Overcast
3:32 AM 33.8 °F 30.8 °F 30.2 °F 87% 30.24 in 10.0 mi South 3.5 mph - N/A   Overcast
3:53 AM 33.8 °F 30.8 °F 30.2 °F 87% 30.24 in 10.0 mi South 3.5 mph - N/A   Overcast
4:13 AM 33.8 °F 30.8 °F 30.2 °F 87% 30.23 in 10.0 mi South 3.5 mph - N/A   Overcast
4:32 AM 33.8 °F - 30.2 °F 87% 30.23 in 10.0 mi Calm Calm - N/A   Overcast
4:53 AM 35.6 °F - 30.2 °F 81% 30.24 in 10.0 mi Calm Calm - N/A   Overcast
5:12 AM 35.6 °F - 30.2 °F 81% 30.24 in 10.0 mi Calm Calm - N/A   Overcast
5:33 AM 33.8 °F 30.8 °F 30.2 °F 87% 30.24 in 10.0 mi SSW 3.5 mph - N/A   Overcast
5:53 AM 33.8 °F - 30.2 °F 87% 30.24 in 10.0 mi Calm Calm - N/A   Mostly Cloudy
6:12 AM 33.8 °F 30.8 °F 30.2 °F 87% 30.24 in 10.0 mi SSW 3.5 mph - N/A   Scattered Clouds
6:33 AM 32.0 °F 28.7 °F 28.4 °F 87% 30.24 in 10.0 mi WSW 3.5 mph - N/A   Clear
6:53 AM 32.0 °F - 28.4 °F 87% 30.24 in 10.0 mi Calm Calm - N/A   Clear
7:13 AM 32.0 °F - 28.4 °F 87% 30.24 in 10.0 mi Calm Calm - N/A   Clear
7:33 AM 30.2 °F - 28.4 °F 93% 30.25 in 10.0 mi Calm Calm - N/A   Clear
7:53 AM 30.2 °F - 28.4 °F 93% 30.25 in 10.0 mi Calm Calm - N/A   Clear
8:13 AM 32.0 °F - 28.4 °F 87% 30.25 in 10.0 mi Calm Calm - N/A   Clear
8:33 AM 35.6 °F - 30.2 °F 81% 30.25 in 10.0 mi Calm Calm - N/A   Clear
8:53 AM 37.4 °F 33.8 °F 30.2 °F 75% 30.25 in 10.0 mi South 4.6 mph - N/A   Clear
9:12 AM 37.4 °F 33.8 °F 30.2 °F 75% 30.25 in 10.0 mi South 4.6 mph - N/A   Clear
9:33 AM 39.2 °F 35.9 °F 32.0 °F 75% 30.25 in 10.0 mi South 4.6 mph - N/A   Clear
9:53 AM 41.0 °F 39.0 °F 30.2 °F 65% 30.25 in 10.0 mi South 3.5 mph - N/A   Clear
10:12 AM 42.8 °F 40.1 °F 30.2 °F 61% 30.25 in 10.0 mi South 4.6 mph - N/A   Clear
10:33 AM 44.6 °F 41.4 °F 30.2 °F 57% 30.25 in 10.0 mi South 5.8 mph - N/A   Clear
10:53 AM 44.6 °F 41.4 °F 30.2 °F 57% 30.25 in 10.0 mi South 5.8 mph - N/A   Clear
11:12 AM 46.4 °F 43.5 °F 30.2 °F 53% 30.24 in 10.0 mi South 5.8 mph - N/A   Clear
11:33 AM 48.2 °F - 30.2 °F 50% 30.23 in 10.0 mi South 6.9 mph - N/A   Clear
11:53 AM 50.0 °F - 30.2 °F 47% 30.22 in 10.0 mi South 8.1 mph - N/A   Clear
12:12 PM 51.8 °F - 30.2 °F 44% 30.21 in 10.0 mi SSW 8.1 mph - N/A   Clear
12:33 PM 53.6 °F - 30.2 °F 41% 30.21 in 10.0 mi SSW 9.2 mph - N/A   Clear
12:53 PM 53.6 °F - 30.2 °F 41% 30.20 in 10.0 mi South 9.2 mph - N/A   Clear
1:12 PM 53.6 °F - 32.0 °F 44% 30.20 in 10.0 mi SSW 9.2 mph - N/A   Clear
1:33 PM 53.6 °F - 30.2 °F 41% 30.19 in 10.0 mi South 10.4 mph - N/A   Clear
1:53 PM 53.6 °F - 30.2 °F 41% 30.19 in 10.0 mi SSW 9.2 mph - N/A   Clear
2:13 PM 51.8 °F - 32.0 °F 47% 30.19 in 10.0 mi South 9.2 mph - N/A   Clear
2:33 PM 53.6 °F - 32.0 °F 44% 30.18 in 10.0 mi South 8.1 mph - N/A   Scattered Clouds
2:53 PM 51.8 °F - 32.0 °F 47% 30.18 in 10.0 mi South 8.1 mph - N/A   Clear
3:13 PM 51.8 °F - 33.8 °F 50% 30.18 in 10.0 mi South 4.6 mph - N/A   Clear
3:33 PM 51.8 °F - 33.8 °F 50% 30.17 in 10.0 mi SSE 4.6 mph - N/A   Clear
3:52 PM 51.8 °F - 33.8 °F 50% - 10.0 mi SSE 6.9 mph - N/A   Clear
4:13 PM 50.0 °F - 33.8 °F 54% 30.16 in 10.0 mi SSE 8.1 mph - N/A   Clear
4:33 PM 48.2 °F - 33.8 °F 58% 30.16 in 10.0 mi SSE 6.9 mph - N/A   Clear
4:52 PM 46.4 °F 42.9 °F 33.8 °F 62% 30.16 in 10.0 mi SSE 6.9 mph - N/A   Clear
5:13 PM 46.4 °F 42.9 °F 33.8 °F 62% 30.16 in 10.0 mi SSE 6.9 mph - N/A   Clear
5:33 PM 44.6 °F 41.4 °F 33.8 °F 66% 30.15 in 10.0 mi SSE 5.8 mph - N/A   Clear
5:52 PM 44.6 °F 41.4 °F 33.8 °F 66% 30.15 in 10.0 mi SSE 5.8 mph - N/A   Clear
6:13 PM 44.6 °F 41.4 °F 33.8 °F 66% 30.16 in 10.0 mi SSE 5.8 mph - N/A   Clear
6:33 PM 44.6 °F 41.4 °F 33.8 °F 66% 30.15 in 10.0 mi South 5.8 mph - N/A   Clear
6:52 PM 42.8 °F 38.6 °F 33.8 °F 70% 30.15 in 10.0 mi South 6.9 mph - N/A   Mostly Cloudy
7:13 PM 42.8 °F 38.6 °F 33.8 °F 70% 30.15 in 10.0 mi South 6.9 mph - N/A   Overcast
7:33 PM 44.6 °F 40.7 °F 33.8 °F 66% 30.16 in 10.0 mi SSW 6.9 mph - N/A   Mostly Cloudy
7:53 PM 44.6 °F 40.7 °F 33.8 °F 66% 30.15 in 10.0 mi SSW 6.9 mph - N/A   Overcast
8:13 PM 42.8 °F 39.3 °F 33.8 °F 70% 30.15 in 10.0 mi South 5.8 mph - N/A   Overcast
8:33 PM 42.8 °F 40.1 °F 33.8 °F 70% 30.15 in 10.0 mi South 4.6 mph - N/A   Overcast
8:53 PM 42.8 °F 39.3 °F 33.8 °F 70% 30.15 in 10.0 mi South 5.8 mph - N/A   Mostly Cloudy
9:13 PM 42.8 °F 40.1 °F 33.8 °F 70% 30.14 in 10.0 mi South 4.6 mph - N/A   Scattered Clouds
9:33 PM 41.0 °F 37.1 °F 33.8 °F 76% 30.15 in 10.0 mi SSW 5.8 mph - N/A   Scattered Clouds
9:53 PM 41.0 °F 37.1 °F 33.8 °F 76% 30.15 in 10.0 mi South 5.8 mph - N/A   Mostly Cloudy
10:13 PM 39.2 °F 35.9 °F 33.8 °F 81% 30.14 in 10.0 mi South 4.6 mph - N/A   Mostly Cloudy
10:32 PM 39.2 °F - 33.8 °F 81% 30.14 in 10.0 mi Calm Calm - N/A   Scattered Clouds
10:53 PM 39.2 °F 35.9 °F 33.8 °F 81% 30.14 in 10.0 mi SSE 4.6 mph - N/A   Clear
11:03 PM 39.2 °F 35.9 °F 33.8 °F 81% 30.14 in 10.0 mi SSE 4.6 mph - N/A   Clear
11:37 PM 39.2 °F 35.0 °F 33.8 °F 81% 30.14 in 10.0 mi SSE 5.8 mph - N/A   Scattered Clouds
11:53 PM 39.2 °F 34.2 °F 33.8 °F 81% 30.13 in 10.0 mi SSE 6.9 mph - N/A   Mostly Cloudy